Home > Time Zones > World Clock > Weather > India > Gonda > Past weeks

Flag for India Weather past 2 weeks in Gonda, Uttar Pradesh, India

Now
52 °F

Fog.


Feels Like: 52 °F
Forecast: 49 / 68 °F
Wind: No wind

Location: Lucknow / Amausi

Current Time: Jan 29, 2015 at 10:59:15 PM

Latest Report: Jan 29, 2015 at 10:00 PM


Visibility: 1 mi

Pressure: 30.09 "Hg

Humidity: 88%

Dew point: 48 °F

Location of GondaLocation

Historic Weather in Gonda — Graph

°F

Gonda temperature yesterday

Maximum temperature yesterday: 68 °F (at 1:00 PM)
Minimum temperature yesterday: 52 °F (at 7:00 AM)
Average temperature yesterday: 61 °F

Past Weeks' High & Low Weather Summary

 TemperatureHumidityPressure
High135 °F (Jan 24, 6:30 PM)100% (Jan 15, 6:30 AM)30.39 "Hg (Jan 15, 6:30 AM)
Low45 °F (Jan 15, 6:30 AM)8% (Jan 24, 6:30 PM)29.95 "Hg (Jan 28, 4:00 PM)
Average56 °F83%30.08 "Hg
* Reported Jan 14 8:30 PM — Jan 29 9:00 PM, Gonda, Weather by CustomWeather, © 2014

Note: Actual official high and low records may vary slightly from our data, if they occured in-between our weather recording intervals... More about our weather records

Advertising

Gonda weather history for previous 24 hours

 ConditionsComfort  
Time TempWeatherWind HumidityBarometerVisibility
9:00 PM
Jan 29
52 °FFog.No wind88%30.09 "Hg1 mi
8:30 PM52 °FFog.No wind88%30.09 "Hg1 mi
7:30 PM52 °FFog.2 mph88%30.07 "Hg1 mi
7:00 PM52 °FHaze.2 mph88%30.07 "Hg1 mi
6:30 PM55 °FHaze.2 mph77%30.07 "Hg1 mi
6:00 PM59 °FHaze.2 mph68%30.04 "Hg2 mi
5:30 PM61 °FScattered clouds.5 mph63%30.04 "Hg2 mi
5:00 PM61 °FScattered clouds.6 mph72%30.04 "Hg2 mi
4:30 PM61 °FScattered clouds.7 mph72%30.04 "Hg2 mi
4:00 PM61 °FScattered clouds.7 mph72%30.04 "Hg2 mi
3:30 PM63 °FScattered clouds.9 mph73%30.04 "Hg2 mi
3:00 PM63 °FScattered clouds.6 mph77%30.04 "Hg2 mi
2:30 PM63 °FScattered clouds.5 mph77%30.04 "Hg2 mi
2:00 PM61 °FScattered clouds.5 mph68%30.04 "Hg2 mi
1:30 PM61 °FScattered clouds.5 mph68%30.07 "Hg2 mi
1:00 PM59 °FScattered clouds.5 mph68%30.09 "Hg2 mi
12:00 PM57 °FFog.6 mph72%30.09 "Hg1 mi
11:30 AM55 °FFog.5 mph82%30.12 "Hg1 mi
11:00 AM54 °FFog.5 mph82%30.12 "Hg1 mi
10:00 AM50 °FFog.5 mph94%30.12 "Hg1 mi
9:30 AM50 °FFog.5 mph94%30.09 "Hg1 mi
8:30 AM50 °FFog.5 mph94%30.07 "Hg1 mi
7:30 AM50 °FFog.5 mph94%30.04 "Hg0 mi
7:00 AM50 °FFog.3 mph94%30.04 "Hg0 mi
6:30 AM50 °FFog.5 mph94%30.04 "Hg0 mi
6:00 AM50 °FFog.3 mph94%30.01 "Hg0 mi
5:30 AM50 °FFog.3 mph94%30.01 "Hg1 mi
5:00 AM52 °FFog.5 mph94%30.01 "Hg1 mi
4:00 AM54 °FFog.2 mph94%29.98 "Hg1 mi
3:00 AM54 °FFog.5 mph94%30.01 "Hg1 mi
1:00 AM54 °FFog.5 mph94%30.01 "Hg1 mi
12:00 AM54 °FFog.No wind94%30.04 "Hg1 mi
10:00 PM
Jan 28
57 °FFog.2 mph88%30.04 "Hg1 mi
Weather by CustomWeather, © 2014

See weather overviewHow to use our weather pages